Theta_e
319 317 317 314 313 312 314 314 314 314 315 314 313 315 315 315 315 315 318 319 320 321 322 321 320 320 320 319 318 321 336 343 347 345 342 346 343 342 339 341 341 341 342 341
318 320 318 316 315 314 314 315 315 315 315 313 314 314 315 314 315 316 318 320 320 322 322 322 321 320 320 319 318 320 327 336 346 346 344 346 345 345 345 345 345 346 345 344
316 320 319 318 318 318 315 315 316 315 316 315 315 316 315 316 316 319 320 321 321 322 323 323 321 321 321 319 318 318 325 332 345 346 344 345 345 346 343 343 343 342 341 336
316 318 320 320 319 318 317 317 317 316 317 315 316 315 317 318 318 319 321 321 324 325 323 323 323 322 321 319 318 321 330 340 344 344 345 343 342 342 341 335 338 331 333 335
318 318 319 321 320 320 319 318 317 317 317 314 316 316 315 316 318 317 318 320 327 328 327 330 324 321 321 323 326 336 344 345 345 344 343 343 342 342 339 339 335 333 337 338
317 319 319 319 320 321 320 319 318 317 315 315 315 316 315 316 318 319 318 323 332 338 336 334 334 344 338 340 344 340 340 341 342 341 338 339 343 341 341 340 338 338 339 339
318 319 320 321 321 320 319 318 319 317 315 314 314 316 315 318 319 320 320 322 328 328 329 329 330 331 336 338 338 339 337 336 342 337 334 334 334 341 338 339 338 335 334 334
323 323 322 321 320 318 316 318 313 316 317 314 318 317 315 318 322 323 323 327 329 330 333 333 333 332 335 342 342 346 345 345 341 338 337 338 337 339 339 335 330 329 330 335
325 325 322 321 320 318 319 316 315 315 324 320 319 319 326 326 323 324 326 328 330 331 333 335 334 333 332 332 336 337 342 343 346 345 344 343 342 341 336 334 335 334 336 339
322 324 321 321 321 320 319 316 316 319 324 327 322 330 332 329 327 324 323 323 329 336 336 335 333 332 331 332 336 339 340 338 340 340 341 341 338 340 340 339 339 339 338 337
320 319 321 323 322 322 319 318 317 318 319 322 326 327 328 327 324 324 321 323 329 334 336 334 333 332 331 332 332 333 333 333 334 336 336 336 336 336 335 335 333 332 331 329
317 321 322 320 322 321 323 320 317 318 320 321 327 326 327 325 323 324 324 325 325 328 330 330 330 330 329 329 329 330 331 332 332 333 333 332 332 332 333 332 331 331 331 330
320 320 322 323 322 322 325 320 318 318 320 325 325 325 325 325 324 322 321 324 325 326 326 326 325 323 325 325 325 325 323 321 322 327 329 329 328 327 326 326 328 329 328 328
322 320 320 321 325 324 325 324 325 321 322 325 325 329 326 325 324 323 320 323 324 324 325 324 323 322 322 321 321 321 320 320 320 319 319 318 317 317 317 317 317 317 318 319
323 323 322 320 324 323 325 326 326 326 325 324 325 327 324 323 323 322 321 320 320 320 324 323 320 319 320 320 320 320 319 319 317 317 316 314 314 314 315 315 314 313 313 314
318 323 322 320 320 321 325 325 325 326 326 325 324 327 324 321 322 319 321 321 323 321 319 319 318 319 319 319 319 319 317 316 315 315 314 313 313 312 312 312 312 312 312 312
318 321 323 323 325 321 324 323 324 324 324 327 327 324 322 323 320 319 320 321 319 318 318 317 317 317 316 316 316 316 315 314 313 313 313 313 312 312 311 311 311 311 311 310
321 321 320 323 323 324 320 319 322 325 325 324 322 322 324 317 316 317 317 317 317 317 316 316 316 315 315 314 314 313 313 313 313 313 312 312 312 312 311 310 310 309 309 308
314 317 317 322 320 322 321 320 322 322 322 322 321 322 317 316 316 315 316 316 315 315 314 314 314 314 314 313 313 313 313 312 311 311 311 310 309 308 308 308 307 306 306 305
314 315 316 315 319 321 321 318 319 319 323 319 318 316 316 316 316 314 315 315 314 314 314 314 314 313 312 312 312 311 310 309 308 307 307 306 306 306 306 305 304 304 304 303
315 313 314 313 313 321 320 321 319 319 321 316 316 316 316 315 315 315 315 315 314 313 312 312 312 311 310 309 308 308 307 306 306 306 305 305 305 305 304 304 304 303 302 301
314 312 310 312 310 320 319 319 320 317 314 314 315 316 317 316 316 315 315 314 314 314 313 312 311 309 306 306 306 305 305 305 304 304 304 304 304 303 303 303 303 302 301 303
313 314 313 313 314 315 316 316 316 315 314 313 313 312 312 310 310 309 307 307 307 307 307 306 306 306 305 305 305 304 304 303 303 302 302 302 302 302 302 301 301 300 302 303
316 313 316 316 318 316 316 315 315 314 312 310 310 309 309 306 306 305 305 305 305 304 304 304 304 304 303 303 302 301 300 299 299 299 299 299 298 298 298 298 299 301 302 301
312 313 315 316 316 315 314 312 309 308 307 307 307 307 305 306 304 304 304 304 303 303 303 303 303 303 302 301 300 299 298 297 297 297 296 296 297 298 299 299 300 300 300 299
313 312 313 316 314 312 310 307 308 306 304 304 305 304 304 304 304 303 303 302 302 301 301 301 301 301 300 299 298 296 296 295 295 296 296 297 297 297 298 298 300 299 298 299
Wind_Speed
16 6 20 16 13 5 5 6 8 5 13 6 10 19 17 20 19 17 26 25 25 30 30 31 30 26 23 29 31 22 29 34 40 37 33 30 31 28 29 26 26 26 25 31
8 20 9 8 7 10 10 9 16 6 13 6 14 19 21 14 16 25 29 28 27 25 31 35 31 29 31 29 31 26 27 30 35 40 35 37 34 31 27 24 22 20 21 24
15 9 17 11 12 12 13 15 13 12 8 8 6 16 9 8 20 25 27 28 25 19 10 24 32 29 31 35 30 28 19 27 29 30 37 41 38 37 35 28 29 27 25 29
12 19 14 20 16 13 15 16 13 17 9 8 5 6 4 6 9 7 16 17 14 9 10 11 17 25 21 28 21 19 18 26 29 33 37 37 41 42 45 25 30 30 31 38
12 17 18 19 22 18 16 11 15 20 15 5 8 2 7 4 7 7 9 11 11 16 13 12 8 10 17 19 17 17 16 19 22 26 25 27 33 39 40 34 34 32 37 41
10 14 18 21 19 19 18 15 11 16 4 6 17 7 5 5 7 5 3 22 25 35 33 27 21 16 14 9 10 10 14 18 21 19 20 23 26 31 32 37 39 35 34 36
11 16 12 14 17 21 18 12 4 4 5 8 7 6 7 6 5 5 6 24 29 36 37 32 28 26 18 18 16 14 13 14 18 17 18 20 21 28 27 29 28 30 34 37
5 8 14 12 18 8 5 16 5 5 4 5 1 5 6 8 2 4 21 34 35 35 35 32 27 23 23 19 17 15 13 13 16 12 16 20 24 25 28 25 23 21 20 23
5 7 3 14 11 10 12 6 17 2 0 3 1 6 5 14 13 12 27 24 33 32 31 30 24 19 15 11 11 7 6 11 13 11 14 18 21 24 29 26 28 28 27 25
9 3 5 5 2 11 11 5 4 2 4 3 4 3 1 10 11 3 13 14 22 33 33 29 25 21 19 15 11 8 9 5 4 8 11 12 13 14 17 18 18 22 23 23
11 10 4 4 8 13 6 7 4 7 6 4 2 1 3 6 8 8 7 15 25 27 33 32 31 26 20 20 21 16 13 15 15 11 9 4 3 4 3 4 6 7 7 9
6 4 5 8 1 4 5 5 5 5 4 4 5 3 1 9 11 8 11 20 31 29 29 30 30 27 26 25 23 23 21 19 16 15 12 12 13 13 13 13 14 13 15 15
4 0 2 2 2 2 5 6 12 5 5 7 7 4 3 11 9 11 11 22 29 32 29 23 27 28 25 22 21 19 18 18 16 13 12 11 9 7 8 8 7 5 6 6
1 4 5 6 3 2 6 3 5 6 4 5 5 7 7 11 7 3 9 22 22 20 21 22 26 25 24 21 19 17 15 13 11 9 9 7 8 10 8 7 7 5 3 2
2 7 4 3 3 5 2 5 4 4 3 5 6 9 12 15 15 13 12 18 23 19 18 22 26 23 22 18 14 11 9 8 7 6 6 8 7 6 6 8 8 9 9 9
3 2 4 3 4 1 8 6 6 4 7 6 3 7 4 8 18 18 18 10 17 21 24 24 20 18 15 11 8 6 8 9 8 6 4 4 4 5 5 6 9 11 13 15
4 4 3 5 15 12 3 13 9 6 5 5 5 5 10 5 7 5 21 27 26 25 25 20 16 13 10 7 5 4 8 12 10 6 5 6 8 9 11 13 16 19 20 22
6 6 3 8 9 3 5 12 9 6 6 6 7 11 10 16 18 25 23 29 27 26 20 16 10 6 3 3 6 9 11 11 11 14 16 17 18 19 21 22 24 25 26 27
3 4 3 4 2 4 10 7 8 17 8 3 9 11 29 23 34 19 26 26 27 23 20 18 13 8 4 2 3 3 7 8 9 12 17 20 23 24 26 27 29 30 30 29
1 4 4 4 4 4 2 3 9 7 8 10 15 18 19 12 6 4 19 16 15 11 9 7 5 2 2 1 2 4 4 8 11 12 15 19 23 26 29 29 30 30 31 33
3 4 4 3 4 3 3 5 5 6 6 9 21 14 13 4 9 20 11 8 9 8 6 4 1 1 2 3 6 8 8 10 10 14 18 20 21 23 26 28 30 32 36 39
2 3 0 3 4 0 6 6 5 8 17 26 28 28 28 23 17 13 10 11 8 7 5 5 7 5 4 5 7 8 10 11 14 18 21 23 25 26 29 32 35 38 38 31
2 3 4 3 4 4 14 21 29 28 26 23 25 24 24 22 21 19 18 15 12 9 8 6 5 6 7 9 12 14 17 19 22 24 26 29 31 32 34 37 38 35 26 23
4 2 5 5 4 9 21 23 23 22 24 25 23 22 19 20 16 17 15 11 7 4 3 5 6 9 12 16 19 22 24 28 32 33 33 33 34 34 31 27 22 20 18 16
2 4 5 6 9 12 15 22 27 28 25 22 20 18 16 12 14 10 8 4 1 3 7 11 13 15 18 21 26 29 31 32 31 31 30 28 24 20 17 15 14 14 12 11
3 4 3 4 17 14 12 25 22 22 20 16 14 13 11 7 6 2 1 4 7 10 12 15 17 19 23 26 29 29 28 28 27 23 18 14 13 13 12 12 9 7 8 6
Wind_Direction
211 195 223 224 229 245 262 232 254 230 236 216 249 262 259 253 241 236 244 247 242 237 238 241 241 241 245 246 245 217 198 210 208 203 200 199 203 211 218 220 222 227 231 233
234 232 230 216 226 201 229 256 255 295 260 202 252 257 253 234 230 234 235 245 252 257 252 240 235 235 241 242 239 228 205 207 211 212 207 206 212 206 212 212 210 206 218 227
221 248 212 226 233 232 227 236 249 247 293 265 274 287 233 224 214 226 236 249 258 238 229 237 232 232 242 235 237 229 218 206 206 211 207 211 213 218 220 223 230 239 248 259
235 231 257 213 234 226 233 232 246 259 261 259 134 270 248 200 201 207 232 238 186 162 192 211 227 228 238 229 231 217 216 195 200 208 208 224 235 227 242 237 242 261 239 244
216 196 222 233 228 234 251 240 241 249 250 260 263 202 268 240 234 241 228 197 153 125 123 104 159 197 195 204 201 203 188 196 211 217 231 240 245 241 232 229 237 247 246 242
237 230 207 229 237 235 245 247 302 294 227 238 246 164 269 194 200 247 159 157 130 116 112 109 109 122 134 170 179 169 198 209 225 220 234 248 244 233 238 238 238 254 252 242
243 248 260 263 224 235 223 222 204 274 194 220 200 190 214 246 209 243 226 158 133 121 113 116 115 101 132 174 181 196 199 210 222 219 231 241 250 240 250 252 252 259 257 256
182 251 233 241 227 194 213 195 181 209 225 221 276 249 258 268 51 139 141 133 124 115 110 106 109 107 96 102 183 202 214 215 211 229 241 244 243 246 248 258 262 261 265 274
175 242 298 210 209 174 241 195 203 173 346 83 283 317 37 356 111 133 128 128 122 118 112 107 99 92 93 96 99 118 173 215 224 228 240 244 249 262 254 267 271 266 264 264
185 295 261 239 230 250 225 209 152 53 155 98 305 89 27 348 350 324 112 96 116 119 115 113 112 106 96 88 79 80 81 97 105 199 218 227 246 249 252 258 263 256 254 251
166 177 258 345 196 226 243 223 198 131 138 136 185 228 155 50 18 23 4 86 113 117 118 116 113 110 104 105 104 101 91 89 89 104 106 97 41 310 328 326 287 294 273 265
183 151 218 229 259 326 228 270 157 153 189 159 114 253 118 69 46 18 48 73 90 105 113 115 117 118 113 108 106 107 107 102 96 94 91 78 84 85 85 84 82 80 83 78
167 125 118 336 352 248 201 233 219 99 126 200 161 222 168 87 53 22 51 81 96 102 97 103 115 114 121 120 120 113 108 105 102 107 106 105 96 94 86 84 86 68 52 40
53 157 182 178 162 243 168 196 115 155 132 148 186 148 143 112 130 59 65 95 88 89 93 107 120 119 121 121 119 117 110 104 93 86 73 60 37 27 18 4 354 339 327 305
326 185 140 69 323 2 3 98 115 103 123 132 185 147 161 148 144 145 144 113 111 110 124 121 117 118 121 127 125 120 109 92 61 38 37 44 29 360 326 315 315 317 320 316
311 49 111 350 308 221 252 135 113 106 102 96 89 110 153 146 141 140 127 142 107 113 116 118 118 114 108 110 102 64 24 8 348 333 355 26 8 351 347 323 320 315 312 310
127 138 139 181 173 167 239 180 188 149 147 144 170 134 142 134 122 185 142 138 127 126 128 126 119 106 95 73 37 356 331 328 329 335 329 318 317 313 310 308 305 304 306 306
147 170 212 151 171 89 0 175 154 139 166 197 135 165 123 116 113 117 125 124 126 129 132 124 120 111 83 28 360 343 329 323 322 323 324 313 308 306 303 303 306 306 306 308
220 171 101 115 214 133 35 5 124 121 53 157 156 137 121 122 99 95 122 123 118 122 123 122 122 114 86 6 313 282 302 316 322 317 315 311 309 308 309 311 314 316 315 314
16 45 115 113 88 115 200 100 123 86 68 3 99 128 139 150 96 180 129 117 111 106 110 117 96 53 333 88 192 258 285 303 317 317 299 302 305 305 309 313 315 314 313 312
12 10 69 62 102 42 40 341 35 71 160 136 104 123 128 94 131 138 123 94 77 76 95 95 216 215 150 221 264 283 286 289 298 298 301 303 305 307 308 309 309 311 312 312
121 104 126 67 77 107 359 21 95 145 118 109 104 111 110 116 125 137 128 135 152 157 169 213 228 187 196 244 270 284 292 296 295 293 296 299 302 303 305 306 308 309 310 309
65 164 142 97 183 290 72 104 118 116 110 103 97 100 110 104 113 116 118 128 129 142 156 164 196 228 259 280 290 298 300 298 298 299 299 298 298 300 300 302 304 307 307 310
38 141 119 86 70 84 101 113 111 108 105 108 108 105 103 98 102 104 108 116 134 151 211 250 264 279 297 303 307 308 307 306 306 304 301 299 299 299 300 302 303 306 312 316
259 29 88 83 83 82 95 103 108 105 104 101 99 102 102 114 92 96 98 89 40 296 286 286 289 291 297 303 307 308 309 307 304 305 306 307 308 309 310 314 321 320 323 319
347 162 125 176 165 116 104 120 119 104 103 110 121 110 95 89 89 61 4 301 293 289 288 291 293 297 299 302 303 303 303 304 307 309 314 319 325 328 330 331 336 348 351 349